Location: Aranbee
(34.0885°N, 118.2342°W)
Time: 11:07:16
(UTC+00:00)

Tiros 1 despin weight - All Passes

Search period start: 30 November 2020 00:00
Search period end: 10 December 2020 00:00
Orbit: 593 x 642 km, 48.2° (Epoch: 29 November)

Date Brightness Start Highest point End Pass type
(mag) Time Alt. Az. Time Alt. Az. Time Alt. Az.
30 Nov - 00:23:52 10° NNW 00:27:47 26° NNE 00:31:40 10° E daylight
30 Nov - 02:05:03 10° NW 02:09:42 74° SW 02:14:17 10° SE visible
30 Nov - 17:50:20 10° SSW 17:54:39 40° SE 17:59:02 10° ENE daylight
30 Nov - 19:31:55 10° W 19:36:15 37° NNW 19:40:37 10° NE daylight
30 Nov - 21:16:01 10° NW 21:18:51 16° N 21:21:42 10° NNE daylight
30 Nov - 22:58:59 10° NNW 23:01:56 16° N 23:04:51 10° NE daylight
01 Dec - 00:40:03 10° NW 00:44:29 41° NNE 00:48:51 10° E daylight
01 Dec - 02:21:46 10° WNW 02:26:00 35° SW 02:30:09 10° SSE visible
01 Dec - 16:28:18 10° SSE 16:30:00 12° SE 16:31:42 10° ESE daylight
01 Dec - 18:06:20 10° SW 18:10:57 84° SE 18:15:39 10° NE daylight
01 Dec - 19:49:10 10° WNW 19:52:58 24° NNW 19:56:48 10° NNE daylight
01 Dec - 21:33:21 10° NW 21:35:52 14° N 21:38:22 10° NNE daylight
01 Dec - 23:15:17 10° NNW 23:18:50 21° NNE 23:22:23 10° ENE daylight
02 Dec - 00:56:19 10° NW 01:01:01 75° NE 01:05:38 10° ESE daylight
02 Dec - 02:39:12 10° W 02:42:08 17° SW 02:45:01 10° SSW visible
02 Dec - 16:42:17 10° S 16:46:06 26° SE 16:49:57 10° ENE daylight
02 Dec - 18:22:55 10° WSW 18:27:26 51° NNW 18:32:01 10° NE daylight
02 Dec - 20:06:39 10° WNW 20:09:51 18° NNW 20:13:02 10° NNE daylight
02 Dec - 21:50:14 10° NNW 21:52:53 15° N 21:55:33 10° NE daylight
02 Dec - 23:31:28 10° NW 23:35:38 30° NNE 23:39:46 10° E daylight
03 Dec - 01:12:49 10° WNW 01:17:23 54° SW 01:21:53 10° SE visible
03 Dec - 16:57:49 10° SW 17:02:18 55° SE 17:06:52 10° ENE daylight
03 Dec - 18:39:57 10° W 18:44:04 30° NNW 18:48:13 10° NE daylight
03 Dec - 20:24:09 10° NW 20:26:49 15° N 20:29:28 10° NNE daylight
03 Dec - 22:06:40 10° NNW 22:09:51 18° NNE 22:13:03 10° ENE daylight
03 Dec - 23:47:40 10° NW 23:52:16 51° NNE 23:56:47 10° ESE daylight
04 Dec - 01:29:44 10° WNW 01:33:36 26° SW 01:37:26 10° S visible
04 Dec - 15:34:41 10° SSE 15:37:35 17° SE 15:40:29 10° E daylight
04 Dec - 17:14:05 10° WSW 17:18:41 75° NW 17:23:21 10° NE daylight
04 Dec - 18:57:19 10° WNW 19:00:51 21° NNW 19:04:25 10° NNE daylight
04 Dec - 20:41:19 10° NNW 20:43:50 14° N 20:46:21 10° NE daylight
04 Dec - 22:22:54 10° NNW 22:26:43 24° NNE 22:30:32 10° ENE daylight
05 Dec - 00:04:02 10° NW 00:08:43 83° SW 00:13:22 10° SE daylight
05 Dec - 01:47:59 10° WSW 01:49:42 12° SW 01:51:24 10° SSW visible
05 Dec - 15:49:33 10° SSW 15:53:42 35° SE 15:57:56 10° ENE daylight
05 Dec - 17:30:52 10° W 17:35:13 40° NNW 17:39:38 10° NE daylight
05 Dec - 19:14:51 10° NW 19:17:46 16° N 19:20:42 10° NNE daylight
05 Dec - 20:57:59 10° NNW 21:00:50 16° N 21:03:42 10° NE daylight
05 Dec - 22:39:04 10° NW 22:43:27 37° NNE 22:47:47 10° E daylight
06 Dec - 00:20:39 10° WNW 00:25:02 40° SW 00:29:22 10° SSE daylight
06 Dec - 16:05:26 10° SW 16:09:59 74° SE 16:14:38 10° NE daylight
06 Dec - 17:48:03 10° W 17:51:55 26° NNW 17:55:49 10° NNE daylight
06 Dec - 19:32:15 10° NW 19:34:46 14° N 19:37:17 10° NNE daylight
06 Dec - 21:14:18 10° NNW 21:17:46 20° NNE 21:21:13 10° ENE daylight
06 Dec - 22:55:20 10° NW 23:00:00 67° NE 23:04:39 10° ESE daylight
07 Dec - 00:37:54 10° W 00:41:12 19° SW 00:44:29 10° S daylight
07 Dec - 14:41:37 10° S 14:45:09 22° SE 14:48:44 10° E daylight
07 Dec - 16:21:54 10° WSW 16:26:25 57° NW 16:31:00 10° NE daylight
07 Dec - 18:05:30 10° WNW 18:08:45 18° NNW 18:12:01 10° NNE daylight
07 Dec - 19:49:12 10° NNW 19:51:47 14° N 19:54:22 10° NE daylight
07 Dec - 21:30:30 10° NW 21:34:34 28° NNE 21:38:38 10° E daylight
07 Dec - 23:11:46 10° WNW 23:16:24 62° SW 23:20:59 10° SE daylight
08 Dec - 14:56:59 10° SSW 15:01:21 47° SE 15:05:47 10° ENE daylight
08 Dec - 16:38:52 10° W 16:43:01 33° NNW 16:47:14 10° NE daylight
08 Dec - 18:23:01 10° NW 18:25:42 15° N 18:28:25 10° NNE daylight
08 Dec - 20:05:41 10° NNW 20:08:46 17° NNE 20:11:50 10° NE daylight
08 Dec - 21:46:42 10° NW 21:51:13 46° NNE 21:55:44 10° ESE daylight
08 Dec - 23:28:35 10° WNW 23:32:39 30° SW 23:36:41 10° SSE daylight
09 Dec - 13:34:16 10° SSE 13:36:39 14° SE 13:39:03 10° E visible
09 Dec - 15:13:08 10° SW 15:17:41 84° NW 15:22:20 10° NE daylight
09 Dec - 16:56:11 10° WNW 16:59:47 22° NNW 17:03:24 10° NNE daylight
09 Dec - 18:40:16 10° NNW 18:42:43 14° N 18:45:11 10° NNE daylight
09 Dec - 20:21:55 10° NNW 20:25:39 23° NNE 20:29:21 10° ENE daylight
09 Dec - 22:03:00 10° NW 22:07:43 87° NE 22:12:24 10° SE daylight
09 Dec - 23:46:21 10° W 23:48:46 14° SW 23:51:09 10° SSW daylight
